Theta_e
310 309 311 309 310 298 305 306 302 305 312 310 306 307 309 309 306 304 313 311 318 321 325 328 327 328 329 331 333 333 334 336 337 335 335 334 333 333 334 335 335 340 339 341 341 344 344 344 346 347 351 352 355 357 356 359 360 360 360 362 360 362 365
310 312 311 310 310 309 306 302 305 311 313 312 308 300 305 303 299 304 311 310 310 312 309 325 325 325 327 329 330 334 336 335 334 335 334 336 335 335 335 337 339 341 342 342 340 342 344 344 345 346 352 350 356 356 356 357 359 359 359 360 358 360 363
310 312 310 308 310 311 305 305 312 304 300 300 306 304 297 297 298 301 308 310 311 312 312 320 321 324 325 329 332 332 332 335 335 335 336 338 344 336 337 338 339 340 342 342 342 342 343 345 349 347 347 348 351 354 356 356 356 357 358 358 359 360 361
309 309 307 300 303 308 310 310 307 310 306 304 302 303 305 304 299 300 303 307 304 314 317 321 321 326 327 328 330 332 334 335 338 338 337 336 337 341 338 338 337 338 339 338 339 341 342 344 344 346 346 347 348 351 354 353 355 356 358 354 358 357 358
308 301 305 302 304 301 302 303 303 305 306 309 307 308 305 303 300 300 300 299 309 318 324 323 326 328 328 330 329 332 333 335 336 338 339 336 335 336 341 339 338 337 339 339 341 342 344 346 345 345 345 345 347 349 350 351 352 351 352 351 355 358 357
303 304 308 307 307 306 304 303 302 304 303 302 299 298 308 306 302 297 299 299 311 324 330 326 326 328 329 330 330 332 334 335 336 338 340 340 336 336 339 342 340 337 338 338 338 341 343 344 346 342 344 344 344 345 350 351 351 349 350 348 354 356 357
304 306 310 311 310 309 308 306 303 306 306 305 302 294 301 305 305 307 305 302 309 326 329 328 328 329 329 331 330 329 333 335 336 338 340 345 347 340 339 339 339 342 341 339 339 340 341 342 343 341 343 342 343 344 348 350 351 354 350 350 352 355 353
306 309 311 311 310 309 306 307 308 306 302 304 303 303 306 302 304 302 302 301 310 324 330 329 330 330 328 332 333 334 334 335 337 339 342 342 344 350 348 340 339 339 344 343 342 342 344 343 344 341 342 343 344 348 347 345 352 353 347 354 357 356 357
301 304 307 306 308 307 304 304 307 308 307 306 306 306 308 302 303 304 300 296 307 326 330 332 334 333 330 329 332 334 332 332 339 342 342 342 344 345 346 344 340 341 344 346 348 358 354 348 343 344 345 345 343 353 351 349 352 352 352 356 359 357 357
293 293 294 296 299 302 305 307 307 308 307 306 304 299 304 296 305 305 301 306 314 323 327 327 330 329 327 329 333 338 338 338 337 339 342 342 342 343 345 351 345 343 343 348 345 350 358 356 344 350 355 359 358 356 354 354 356 354 359 354 359 358 356
298 300 303 306 308 306 302 304 305 306 308 308 307 305 303 298 303 302 310 312 315 318 323 325 327 327 326 327 330 331 334 338 339 340 341 340 340 341 344 345 345 344 344 344 348 344 351 360 353 353 359 358 363 357 355 357 358 358 360 360 358 358 352
305 305 305 306 307 303 305 305 304 306 306 308 306 302 300 314 303 298 309 316 311 315 321 323 325 326 327 328 330 334 333 335 339 339 340 342 340 344 348 343 344 343 342 346 347 349 351 359 356 356 359 360 361 356 356 359 360 360 357 363 359 359 357
305 306 307 306 306 305 306 306 306 305 306 306 303 304 307 307 303 303 311 314 311 315 321 323 326 328 328 329 331 333 333 332 334 332 332 334 337 338 340 345 347 348 348 353 351 353 357 359 359 360 358 358 361 360 361 363 362 363 361 362 362 360 359
304 305 305 306 305 306 306 305 306 307 306 307 306 306 308 307 310 309 309 317 316 318 322 327 330 331 333 330 332 333 330 329 332 333 332 334 333 335 339 346 348 349 350 351 352 355 355 355 355 357 359 360 362 362 363 368 368 367 370 365 363 361 361
302 305 306 306 306 305 304 306 307 307 307 308 309 310 309 311 312 311 310 316 316 322 327 328 333 333 332 331 331 329 330 333 332 332 333 331 333 335 334 334 339 348 347 348 350 351 352 354 353 355 358 359 360 361 362 361 361 365 368 366 361 360 362
299 304 304 305 305 305 303 304 305 308 306 305 308 308 311 310 308 312 313 312 313 321 325 327 329 329 329 329 330 331 330 330 332 331 332 334 335 335 335 339 341 337 340 347 347 348 349 351 353 354 356 358 359 359 360 361 363 365 365 362 356 357 357
298 303 304 303 303 302 299 302 304 307 308 309 310 311 313 312 313 310 309 311 319 323 325 322 326 326 329 328 330 331 332 335 335 335 335 335 338 337 339 338 335 337 339 340 342 346 347 348 353 353 355 356 358 359 360 362 364 362 362 360 358 356 356
298 302 302 303 299 293 296 308 311 310 307 308 308 309 311 312 314 312 315 317 320 321 322 322 323 323 326 330 332 335 335 335 335 336 337 340 339 337 338 339 340 342 340 341 343 343 341 342 345 346 346 350 353 356 359 360 360 360 359 358 359 356 356
298 301 302 297 292 292 306 314 312 311 311 311 312 311 313 313 315 316 315 318 319 320 323 324 326 327 327 329 334 333 337 337 336 336 335 336 339 338 340 339 338 339 342 344 341 342 344 346 347 345 344 347 351 353 354 354 354 355 356 353 351 352 350
301 298 297 289 292 305 310 310 311 313 313 314 312 310 312 314 315 317 316 318 319 321 323 326 327 327 327 328 332 333 335 336 336 334 335 337 339 338 339 339 339 340 343 340 343 343 346 347 347 347 346 348 347 348 350 351 352 350 349 349 350 348 347
296 297 296 295 304 305 306 307 309 309 307 308 307 304 308 314 314 315 316 318 320 321 322 325 327 326 325 325 328 332 331 333 335 337 338 340 338 338 339 340 340 342 343 342 343 344 344 346 346 346 346 345 344 345 346 347 349 347 344 345 346 347 350
302 297 295 298 295 293 301 309 312 314 313 313 315 311 308 314 316 317 316 317 319 320 322 324 325 327 322 320 320 327 330 333 335 338 338 338 337 337 338 340 341 341 341 341 342 341 342 343 343 344 342 343 343 343 343 344 346 346 346 345 347 348 344
299 298 294 294 292 300 306 309 311 313 314 313 314 308 303 312 315 317 317 316 318 320 321 322 325 322 316 316 322 328 333 333 334 333 337 337 337 337 337 338 338 339 340 341 340 341 341 340 343 345 346 344 342 342 343 343 344 344 345 345 348 347 345
299 297 294 292 301 301 307 310 311 313 315 313 308 296 297 310 315 317 317 317 317 320 322 323 323 321 316 318 322 329 331 332 331 333 335 336 337 336 337 339 338 339 341 340 338 337 337 339 342 343 344 343 343 343 342 341 340 340 342 345 347 348 348
299 299 296 301 302 308 310 310 312 315 313 307 297 292 304 316 317 317 318 318 319 320 322 323 318 324 324 326 329 331 331 331 332 334 334 334 334 334 335 336 339 337 336 336 335 335 337 340 339 341 342 341 340 340 341 339 339 340 343 345 346 346 347
299 299 296 297 302 309 311 312 313 316 308 297 299 308 318 318 318 319 319 318 320 322 321 324 326 327 328 330 330 330 329 331 331 332 332 332 331 334 335 337 336 333 332 333 333 334 336 337 339 339 339 338 338 339 338 337 339 340 341 340 339 338 340
301 301 296 293 289 306 313 312 312 316 307 306 314 317 318 319 318 318 319 319 320 320 320 323 326 326 328 328 328 328 327 328 328 329 329 332 331 333 332 331 332 330 329 328 329 330 332 335 337 337 337 335 335 335 334 336 339 340 339 338 338 337 337
296 297 296 294 303 310 314 314 306 311 314 317 319 317 315 318 319 318 319 319 320 322 323 324 325 327 327 328 327 328 327 328 329 329 330 331 333 333 327 327 328 328 326 327 327 329 331 333 335 337 337 335 335 333 333 337 337 338 337 336 337 337 337
302 301 305 309 312 313 315 315 316 317 319 320 319 318 317 317 317 321 319 318 320 323 325 325 325 325 326 327 330 328 328 328 328 329 328 329 329 327 326 326 329 328 326 327 327 327 329 332 333 336 336 334 332 332 334 337 337 337 337 336 335 333 332
310 311 312 312 313 314 314 316 317 316 318 319 320 318 317 318 319 320 318 319 320 323 326 324 324 325 326 326 326 326 327 328 329 330 330 330 330 330 327 326 326 326 325 325 326 326 328 329 332 335 334 333 331 333 336 338 336 336 336 337 336 333 330
304 297 311 311 311 313 315 314 317 317 317 318 319 319 318 319 320 319 320 321 321 321 326 325 324 325 326 326 326 326 326 327 328 328 329 330 330 330 329 330 328 326 324 322 323 323 323 326 327 328 329 330 333 335 337 334 335 337 335 334 334 334 332
304 306 311 312 314 314 315 315 314 313 316 318 319 319 320 320 320 320 320 320 320 322 322 324 325 324 325 325 325 326 325 326 326 327 327 327 327 328 329 328 328 326 325 323 323 323 324 326 327 326 326 327 329 330 329 332 333 336 334 333 329 331 328
308 311 312 312 314 314 314 313 315 315 315 316 317 317 319 319 319 319 320 321 320 321 320 322 324 323 323 325 326 326 324 326 326 326 327 327 326 326 326 326 327 325 324 323 323 323 323 325 326 327 328 327 327 330 331 334 337 334 333 330 332 328 330
301 303 308 312 305 306 311 314 315 315 316 316 316 317 316 317 317 318 318 320 321 320 321 321 322 324 322 324 325 324 325 324 325 325 325 326 326 325 325 325 324 325 324 324 322 322 323 324 325 326 327 327 327 327 329 332 336 334 332 333 331 330 331
303 310 313 314 313 312 313 313 315 316 317 315 314 314 315 316 317 318 318 318 319 319 320 323 322 323 323 323 324 323 324 324 325 326 325 324 323 323 324 323 323 323 324 324 324 324 324 325 324 325 326 326 328 331 331 329 332 334 331 336 334 329 330
312 314 315 315 313 310 313 315 315 316 317 315 313 314 316 317 317 318 318 319 318 318 319 321 324 323 324 325 323 322 324 325 325 325 326 325 323 321 322 323 323 323 323 323 323 324 324 324 324 325 322 324 328 326 329 330 331 333 330 334 330 326 328
311 316 316 315 315 314 315 316 317 317 317 315 314 314 315 316 317 318 318 318 319 318 318 318 321 325 324 324 324 324 323 324 325 323 323 323 322 322 322 321 321 321 322 323 323 324 324 324 324 324 322 324 324 323 325 325 328 330 329 329 328 329 331
Wind_Speed
14 12 11 14 11 8 6 7 10 11 8 10 4 5 9 10 5 6 11 3 4 1 4 2 4 6 10 12 13 14 14 12 10 9 9 10 10 12 12 14 13 14 15 12 13 13 13 13 13 11 11 12 11 12 13 13 13 12 12 11 11 9 9
8 8 9 9 13 13 9 6 8 7 9 10 7 6 3 6 7 1 4 8 7 7 3 4 6 5 11 14 13 15 12 12 15 13 11 9 9 10 12 13 11 13 12 13 14 14 14 13 15 12 10 13 11 13 14 14 14 13 13 13 12 11 10
8 8 7 9 11 15 14 13 11 7 8 11 9 3 7 7 8 4 4 11 8 8 6 8 10 10 11 13 14 14 16 14 14 12 11 8 3 9 10 11 10 12 12 13 11 15 15 14 11 13 13 13 13 14 14 15 15 15 14 12 11 9 10
7 9 7 10 10 13 17 12 12 7 9 7 8 10 6 5 7 5 1 4 4 4 6 12 10 8 9 10 12 13 16 15 10 7 9 10 3 3 8 10 11 13 15 17 16 14 16 16 14 13 15 14 16 15 14 14 14 14 13 13 12 11 12
6 8 8 10 9 11 12 11 10 7 7 5 6 5 10 8 6 6 5 4 3 4 2 7 9 10 9 14 13 12 14 15 13 10 7 7 7 7 5 10 10 13 13 15 13 13 14 13 13 13 15 15 15 14 16 15 14 15 15 14 13 10 10
7 5 9 10 11 10 10 11 10 8 6 7 4 7 4 6 4 4 5 2 3 2 2 6 9 8 10 13 14 13 14 16 15 11 11 8 10 13 10 7 8 9 12 15 14 12 13 12 11 14 14 14 15 15 12 12 12 13 15 14 12 10 9
4 6 10 10 12 12 9 10 12 11 8 7 6 5 7 6 10 9 8 4 5 5 5 6 11 10 10 9 10 11 14 15 16 14 12 6 2 10 10 9 8 4 5 11 12 12 12 14 14 14 14 13 13 14 14 11 11 10 11 11 12 10 10
12 12 11 12 10 13 12 11 11 11 12 11 10 7 3 7 4 5 3 5 6 3 4 3 3 6 8 10 10 9 8 9 13 14 11 9 5 2 6 12 10 10 5 6 9 10 9 11 11 13 11 11 11 9 12 13 12 12 14 9 11 10 8
7 6 8 7 6 8 8 7 6 7 6 11 13 11 8 7 6 8 8 3 0 4 8 6 4 5 3 6 12 11 10 9 11 11 10 9 8 7 5 8 12 13 9 7 4 2 4 7 10 9 8 9 10 8 10 10 9 11 8 8 9 11 9
7 5 3 3 2 3 6 6 11 8 10 11 10 9 5 5 4 8 7 8 8 9 9 7 4 7 6 8 12 4 6 10 11 10 8 8 8 6 6 6 10 11 10 6 6 3 2 4 9 7 6 5 5 9 10 8 8 9 6 10 9 10 10
8 7 8 10 8 5 7 8 14 16 17 13 10 9 6 7 7 8 8 13 11 10 8 4 6 7 5 2 7 4 2 4 8 6 7 8 8 8 8 7 7 9 9 10 7 10 6 4 7 6 5 5 5 9 10 8 8 8 7 7 9 9 11
10 8 10 11 10 11 12 12 12 12 14 6 11 10 9 3 8 3 8 12 11 6 7 7 5 9 5 4 9 2 1 3 2 5 4 5 5 2 6 10 12 13 13 12 11 10 9 5 6 6 5 5 7 9 10 9 9 8 8 6 8 9 9
9 13 12 4 7 10 11 11 14 12 11 14 17 16 12 8 6 5 9 8 8 11 8 7 5 3 12 8 0 9 4 4 5 6 5 4 3 5 8 12 11 13 14 12 12 11 8 8 7 5 5 6 6 7 8 8 8 7 8 6 7 7 8
9 10 8 11 14 12 12 13 11 6 12 12 12 8 6 8 10 9 7 15 17 11 8 8 7 6 11 11 8 4 8 7 5 4 10 12 12 9 8 8 12 11 12 13 12 11 10 10 8 7 6 5 4 4 5 5 5 4 3 6 6 7 8
8 9 10 11 11 9 11 11 13 10 7 11 21 20 20 19 15 19 15 19 13 10 9 8 5 7 7 6 10 16 11 7 5 7 6 9 11 12 10 9 10 5 9 11 11 10 9 9 9 8 7 6 6 6 6 5 5 5 5 3 4 1 1
6 9 8 8 7 10 3 16 20 15 10 16 16 15 15 14 12 14 12 13 7 6 9 9 4 2 3 8 8 9 13 17 16 14 16 14 14 14 13 10 7 8 11 3 9 9 9 8 8 6 6 7 6 6 6 6 6 5 5 6 4 4 3
6 5 9 8 9 8 3 11 7 9 8 11 12 13 13 15 15 10 10 7 4 4 4 7 11 5 4 2 2 5 5 5 8 10 9 9 8 11 8 7 7 5 3 8 11 8 5 4 2 6 5 5 5 4 4 4 4 5 5 6 5 5 6
5 8 6 7 6 7 4 6 8 3 8 10 14 12 12 13 12 9 8 7 6 7 6 5 5 7 10 5 1 1 4 6 6 6 2 3 9 9 8 8 5 5 6 5 1 4 6 3 7 11 13 10 9 5 3 0 4 4 4 4 4 5 3
6 4 6 6 10 2 4 6 5 6 6 11 14 15 14 13 13 11 10 9 8 7 5 4 4 5 9 16 12 6 4 5 3 3 8 3 7 8 10 12 9 5 4 6 10 7 2 3 6 6 5 5 1 2 2 1 1 1 2 5 3 2 1
4 6 4 7 3 6 8 5 11 10 6 14 13 11 14 14 11 10 7 7 8 9 10 7 6 5 7 8 11 15 13 9 4 5 5 6 5 9 8 11 11 6 6 5 4 7 2 3 7 7 4 2 2 3 2 2 1 3 4 1 2 1 2
7 5 6 0 4 6 4 3 7 8 7 8 4 3 6 12 12 10 9 9 9 9 10 10 7 5 5 6 6 9 17 12 0 3 7 5 8 9 8 9 9 8 7 8 8 7 3 3 4 6 6 2 2 6 5 4 3 3 2 1 1 3 2
7 3 6 2 0 4 3 4 3 6 8 6 9 7 5 11 14 12 12 8 9 9 10 11 11 3 3 6 3 5 9 12 4 8 5 7 9 8 9 8 9 8 7 6 7 9 9 9 8 6 6 5 3 2 3 2 1 2 5 2 2 3 3
5 6 6 6 2 4 3 4 5 7 6 9 2 5 3 6 12 12 12 10 11 12 12 12 10 6 3 3 4 5 7 5 8 9 6 5 9 9 8 9 8 7 7 6 6 6 8 9 8 6 6 6 6 4 3 3 3 3 1 1 4 4 4
6 5 5 3 4 3 5 9 8 8 8 10 4 7 3 10 10 10 11 11 10 11 11 10 8 8 4 5 6 8 10 9 5 7 5 4 9 9 9 10 8 6 4 5 9 9 8 8 7 6 6 5 7 8 9 9 9 8 7 6 5 4 6
4 3 3 7 5 6 10 11 9 10 10 5 5 3 4 5 8 9 9 9 10 9 9 8 6 5 4 3 5 7 8 8 9 5 2 7 9 9 9 9 9 9 8 7 8 9 8 7 7 8 9 10 9 8 8 9 9 8 7 7 7 7 5
6 4 1 4 5 5 10 12 9 13 9 3 4 1 4 5 7 8 9 9 10 9 8 6 3 3 3 6 8 11 12 11 8 9 9 9 8 8 10 10 9 7 8 8 8 9 9 8 9 10 10 10 8 7 9 9 8 8 8 9 9 10 10
2 4 5 1 1 6 12 13 5 15 5 5 3 3 5 8 9 9 8 9 10 9 8 7 4 3 5 6 7 9 9 9 9 8 9 10 8 5 5 6 6 8 9 12 13 12 10 11 10 10 10 10 8 8 9 9 7 8 8 9 9 9 9
5 5 3 1 3 4 9 10 7 6 8 5 5 4 6 6 7 8 7 8 9 9 9 6 5 3 3 3 4 6 6 7 6 4 7 6 3 5 10 10 11 14 11 10 11 12 11 10 8 7 7 7 7 8 8 5 6 8 8 9 9 9 8
5 2 2 4 2 3 7 7 8 8 8 6 7 6 7 7 7 7 7 8 9 10 7 5 5 5 6 5 5 6 7 5 3 3 7 4 7 9 9 12 13 13 12 12 11 11 10 9 8 7 6 7 8 8 5 4 4 6 6 8 8 9 9
2 6 6 5 3 5 5 7 7 8 7 8 7 9 7 8 7 7 7 8 9 9 9 6 5 4 4 5 5 7 7 6 4 3 3 5 6 6 6 7 9 9 10 9 8 8 8 7 7 6 6 6 8 7 6 5 5 5 5 4 6 8 9
3 1 8 4 6 2 4 5 7 8 6 7 7 7 7 7 9 8 8 8 9 9 8 7 5 5 2 2 2 3 5 6 7 6 6 5 2 4 7 7 6 6 9 9 9 8 8 6 6 6 6 5 5 5 6 6 6 5 5 5 5 5 7
0 5 5 2 4 3 5 5 6 6 6 7 7 6 6 7 8 9 9 8 8 7 8 6 4 3 3 3 3 4 5 6 6 6 6 6 6 7 8 7 7 7 6 9 9 9 7 6 6 6 5 4 4 4 5 7 6 5 4 3 6 7 7
10 9 4 4 3 5 7 6 6 5 5 5 6 8 7 8 9 9 9 8 8 7 7 6 6 5 1 2 2 2 4 5 6 6 5 5 6 7 8 7 7 7 7 8 8 9 8 6 6 9 12 10 5 7 7 5 3 3 3 4 4 5 5
2 4 3 3 4 3 3 4 4 3 2 4 5 5 7 7 8 8 8 7 7 7 6 6 6 6 5 4 3 2 2 4 5 7 7 5 5 7 7 8 8 9 8 8 9 9 8 7 8 8 9 9 11 11 8 5 4 4 3 3 3 4 4
4 5 4 1 1 3 3 1 2 3 4 4 4 5 5 6 6 6 7 7 7 7 7 6 6 6 6 6 5 3 3 4 6 7 9 9 6 6 7 9 9 8 7 8 8 9 8 7 7 6 6 8 7 6 7 8 5 3 3 3 3 4 3
7 5 3 3 2 3 2 3 1 2 4 3 4 5 5 7 7 6 6 6 7 6 7 5 4 4 4 9 5 4 4 5 6 6 6 8 7 7 6 7 8 8 7 7 6 7 6 6 8 8 8 7 7 7 7 8 8 4 3 3 0 3 3
5 4 3 3 2 1 1 3 3 4 5 4 5 5 6 6 6 7 6 5 6 7 6 7 6 5 5 7 6 5 5 5 6 7 6 6 6 6 6 8 8 8 6 4 4 4 4 3 5 9 9 6 6 6 8 8 8 6 6 7 7 3 4
Wind_Direction
170 197 198 210 243 238 174 214 213 218 248 257 250 239 243 270 247 250 142 184 124 271 326 179 177 199 171 176 172 179 182 182 189 195 206 214 189 175 172 175 184 165 175 181 176 171 174 180 174 182 151 160 163 161 169 170 172 173 173 174 175 170 165
184 175 187 223 206 243 280 244 204 216 233 270 240 239 217 249 273 292 199 145 157 167 171 226 156 173 168 169 170 175 172 179 192 192 204 210 195 174 174 171 179 163 169 180 183 175 177 182 173 179 156 165 155 167 172 172 175 175 176 178 178 175 170
173 147 207 216 228 221 244 254 13 257 185 208 233 250 232 241 234 240 174 172 174 181 148 176 187 181 180 175 170 172 176 179 185 189 207 206 179 181 173 166 174 161 171 182 195 172 181 178 187 162 174 170 167 172 176 177 177 178 178 179 176 176 177
185 173 199 230 197 213 244 262 265 272 295 255 213 185 236 230 262 252 303 236 70 255 152 175 185 167 173 183 173 182 183 178 174 173 195 208 148 269 184 164 174 168 177 184 197 179 177 177 183 174 178 177 176 174 174 181 178 179 179 181 175 179 180
203 219 178 228 207 192 203 234 250 238 251 329 287 199 203 210 239 260 262 243 146 132 256 165 166 163 173 183 185 192 193 186 180 180 196 184 173 214 222 164 171 176 177 184 200 175 180 175 183 182 183 186 179 178 175 182 178 180 182 181 177 186 178
216 258 167 221 236 199 200 214 227 240 221 222 224 268 261 268 273 261 233 256 146 42 326 159 157 205 178 183 184 182 185 185 181 182 187 183 179 195 205 162 160 182 172 185 194 184 183 176 175 191 183 188 188 183 169 178 175 185 182 183 177 182 189
265 249 196 180 249 264 231 200 222 216 252 268 214 240 232 211 223 233 245 220 140 167 161 147 171 190 197 179 186 188 182 184 182 181 184 159 187 192 188 163 154 208 177 179 192 197 191 173 178 194 187 189 189 185 165 178 171 185 184 182 172 180 184
306 305 285 171 203 237 248 220 223 201 212 233 265 291 290 294 309 260 270 251 101 107 72 129 156 169 187 171 181 188 172 166 176 178 171 171 179 270 183 163 164 182 215 195 182 194 200 176 177 195 193 186 184 182 166 178 172 182 186 179 162 175 182
267 275 269 209 179 234 234 240 211 265 252 223 254 267 274 262 273 315 300 45 15 68 27 343 114 108 64 194 180 188 171 186 168 159 161 170 184 196 189 180 161 174 193 183 142 133 196 167 173 194 200 183 184 160 157 170 171 176 191 166 160 169 185
236 237 270 95 51 300 279 298 285 223 233 246 222 234 250 273 330 310 279 135 159 138 149 195 62 74 103 360 336 347 162 178 179 172 161 166 179 189 186 177 160 168 180 176 166 166 254 176 170 187 180 182 165 145 156 162 170 172 193 165 166 171 179
296 347 330 287 259 252 261 201 241 267 244 199 261 292 266 233 212 218 35 108 124 135 127 105 94 73 10 237 210 271 330 167 173 176 162 172 177 185 190 189 187 172 175 178 177 177 207 193 166 168 171 178 154 151 160 163 171 172 189 173 173 173 181
273 286 277 309 309 305 298 278 225 241 298 260 217 216 244 319 330 154 81 102 110 137 154 141 162 126 115 269 284 250 164 320 138 203 142 116 107 148 203 193 203 184 179 180 176 183 186 175 158 172 179 183 161 165 163 166 169 171 186 185 170 174 181
256 240 233 246 281 280 287 281 280 259 237 253 263 262 235 237 263 288 100 100 110 97 83 82 74 98 134 170 168 304 306 333 66 78 84 343 316 211 214 205 179 165 162 154 160 154 138 127 105 106 161 179 162 162 160 155 166 175 181 190 174 176 182
287 294 264 263 249 235 238 255 279 303 323 320 266 257 328 306 312 315 306 68 61 60 82 99 100 104 113 127 108 78 303 285 288 141 168 170 198 230 252 225 175 167 154 147 150 146 148 135 128 123 114 105 108 139 120 108 127 138 176 191 181 183 189
278 278 286 267 239 239 245 258 265 281 293 9 17 21 17 16 17 7 32 65 61 45 21 23 66 107 105 104 132 149 190 250 247 245 203 188 208 204 196 254 301 294 171 157 152 152 156 150 143 137 139 132 140 145 143 152 162 178 182 123 67 59 262
261 243 252 276 269 245 271 36 24 0 44 30 14 15 14 20 0 12 16 56 34 6 350 339 328 21 99 148 170 161 172 178 197 195 211 193 195 175 209 195 185 250 303 205 162 159 161 162 152 145 146 145 151 155 158 169 170 167 175 132 159 212 227
271 291 235 229 248 281 202 20 18 5 34 54 34 27 10 17 2 17 19 41 57 340 30 354 313 337 95 348 248 166 198 219 205 210 211 174 159 156 177 180 202 214 221 325 338 10 19 25 107 144 143 148 159 152 165 173 178 175 186 149 169 199 209
305 282 280 276 287 246 39 287 24 326 330 52 49 32 13 11 6 22 16 49 22 2 358 1 336 349 339 328 316 239 209 204 217 217 175 88 119 112 120 98 68 138 150 227 96 102 119 111 7 21 8 359 354 6 14 247 196 186 203 201 190 176 191
268 309 278 282 236 38 107 29 15 9 29 69 73 64 24 30 21 18 22 358 17 4 357 335 348 343 13 341 336 288 208 204 127 131 107 100 115 110 98 101 96 61 78 138 132 109 120 124 108 116 143 225 223 47 6 3 45 20 38 31 8 347 329
267 260 237 236 71 144 64 15 29 360 17 110 105 75 33 28 36 18 8 11 353 1 12 19 28 15 34 20 352 350 347 10 93 132 124 139 134 122 116 106 113 127 113 52 46 113 199 165 144 151 150 186 111 313 281 282 85 33 41 137 193 158 181
258 236 245 76 159 158 88 68 7 20 10 354 29 100 44 19 24 18 354 20 3 2 6 5 11 43 46 63 47 352 344 339 182 57 115 114 113 109 97 89 81 82 77 100 108 121 192 215 172 132 127 210 229 236 235 233 234 134 264 264 221 213 192
288 286 294 149 283 224 30 306 14 324 4 334 104 127 123 23 12 12 2 25 9 10 357 358 351 325 0 42 341 328 331 2 345 125 92 88 93 88 88 91 93 85 77 70 56 70 80 82 69 83 102 96 102 58 2 333 358 122 163 194 215 100 64
279 265 241 255 250 75 150 24 348 359 342 342 308 185 132 4 349 12 359 10 14 12 1 355 2 349 6 48 14 344 319 27 11 7 21 74 92 96 99 97 92 81 64 55 75 57 70 79 76 73 87 101 101 105 107 85 75 75 42 177 121 133 150
243 283 288 316 77 67 10 358 339 358 339 313 307 264 67 322 359 12 4 21 22 21 4 353 15 17 23 2 7 11 42 63 47 11 28 27 80 85 92 90 85 87 84 87 76 75 67 63 76 90 102 90 77 81 70 65 62 58 54 43 56 87 135
285 202 276 88 63 16 351 344 331 353 340 322 265 335 60 315 13 6 22 21 17 19 23 13 3 27 52 50 36 33 40 45 43 55 76 84 86 95 102 103 99 86 80 76 81 74 61 52 66 74 69 70 73 74 75 75 64 55 42 30 39 42 48
321 335 107 114 107 18 340 330 13 359 298 278 63 167 271 11 23 25 31 20 25 8 27 16 29 69 75 75 65 56 40 33 38 9 24 42 42 55 70 88 99 104 103 106 95 84 76 67 64 63 64 64 57 66 78 79 76 71 63 62 63 59 56
252 89 61 44 95 38 7 341 29 20 31 72 51 331 46 25 24 18 33 29 26 11 9 32 356 74 88 69 58 63 53 28 15 34 18 6 12 0 75 100 102 86 69 64 74 73 66 67 71 72 75 71 61 61 66 70 79 80 70 67 67 64 60
319 1 12 24 38 334 34 35 54 58 59 54 37 357 53 38 27 15 25 28 36 26 22 20 41 50 88 81 87 93 103 117 106 66 44 10 40 49 56 53 55 56 69 70 66 62 57 54 62 81 82 88 85 80 63 50 74 87 87 83 74 68 60
9 40 95 115 106 343 83 83 90 81 68 46 39 36 44 33 36 16 24 20 27 32 25 52 62 72 67 77 89 103 112 102 74 72 106 45 17 69 70 71 61 58 59 59 59 59 58 55 49 56 68 80 92 93 91 91 80 81 92 97 97 90 79
51 58 87 142 130 103 81 92 75 69 50 41 38 37 37 37 32 25 22 8 28 38 33 40 44 50 71 92 100 101 110 114 100 78 68 116 116 90 90 82 88 90 77 73 75 84 80 74 71 53 42 58 78 83 105 108 98 90 89 103 110 109 106
257 132 344 353 113 88 82 70 80 69 42 41 31 40 36 35 33 25 24 11 25 34 50 42 48 69 51 85 126 108 114 120 105 79 70 54 58 123 104 112 119 108 107 101 91 72 71 82 86 81 70 58 59 78 85 80 90 102 99 81 63 75 108
281 98 114 75 25 64 42 61 59 47 44 37 24 29 30 32 32 24 17 6 32 19 50 59 85 93 74 74 88 127 124 117 109 101 89 82 64 60 78 76 87 96 95 97 91 89 71 57 75 88 85 71 60 34 80 87 74 42 47 81 124 143 130
102 125 158 162 209 86 58 61 39 28 25 18 10 1 14 22 16 11 14 7 19 22 25 29 77 110 248 236 266 152 139 125 126 129 106 79 90 103 110 111 108 101 104 107 109 104 90 69 48 50 33 22 37 46 32 60 66 76 59 56 32 31 27
149 135 118 51 219 184 121 80 68 46 26 348 10 11 11 19 9 7 358 6 4 16 23 17 38 128 190 253 251 268 220 181 145 134 132 123 105 104 101 105 106 107 105 104 104 105 106 87 61 46 45 37 20 25 10 16 20 56 50 14 60 45 41
94 107 91 47 55 140 60 83 46 2 36 19 350 9 3 24 12 0 359 358 5 2 16 21 27 37 123 199 234 199 193 159 164 163 150 149 140 124 117 113 111 114 117 110 103 95 92 101 93 83 67 39 33 40 9 360 344 32 11 19 25 70 54
106 87 89 53 25 50 123 63 47 69 63 19 349 357 4 14 10 1 350 357 353 355 357 20 47 38 77 151 201 202 174 154 146 142 141 142 143 138 133 129 131 131 135 129 119 103 102 108 114 106 85 61 28 28 22 17 0 4 349 29 299 110 75
80 88 91 87 69 57 99 151 77 56 65 20 3 358 12 2 353 357 338 343 346 352 5 1 11 17 358 107 165 169 193 177 139 115 127 133 145 147 139 138 139 140 134 126 120 116 109 102 105 110 107 92 72 35 23 14 0 12 4 19 8 61 103